NOAA 16 DEB, 41367

Orbit data source: Space-Track

NOAA 16 DEB, 41367 is space debris in SSO originally from a launch on Thu, 21 Sep 2000 UTC launched from the Air Force Western Test Range (AFWTR). Debris objects in space refer to the collection of defunct objects orbiting the Earth. Examples of debris include non-operational satellites, rocket bodies, and fragments generated from explosions, collisions, or faulty payload assembly.

Loading next visibility...
Identifier
41367, 2000-055JL
Orbit
SSO
Country
Flag of USUS
Related business
Manufacturer
Unknown
Mission
Spacecraft
Bus & Motor
Unknown
Mass
Unknown
Launch date (UTC)
2000-09-21 (25 years ago)
Launch vehicle
Unknown
Launch site
Air Force Western Test Range (AFWTR)
Object type
Payload
Rocket body
Debris
Shape & HBR
Unknown shape, 0.1 m
Radar Cross Section
Small (<0.1 m²)

Expand to show TLE details & history
Last TLE update: 15 hours ago

TLE from 15 hours ago
0 NOAA 16 DEB
1 41367U 00055JL  26035.05170462  .00011769  00000-0  27140-2 0  9992
2 41367  99.0013 249.4732 0031497 187.6363 172.4357 14.55149249520745
Epoch: 2026-02-04T01:14Z
TLE epoch observation values (Epoch: 2026-02-04T01:14:27.279Z)
Latitude
0.00006°
Longitude
96.6357°
Altitude
733.966 km
Speed
7.476 km/s
True Right ascension
16h 37m 53s
True Declination
0° 00' 00"
Sunlit
Object was in daylight at epoch
Visualization orbit readout
Latitude
Unknown
Longitude
Unknown
Altitude
Unknown
Speed
Unknown
Apparent Right ascension
Unknown
Apparent Declination
Unknown
Sunlit
N/A
Visualization observer readout
Local Sidereal Time
18:36:10
Azimuth
Unknown
Elevation
Unknown
Doppler factor
Unknown
Orbital elements
Apogee altitude
728.319 km
Perigee altitude
683.693 km
Semi-major axis
7,084.143 km
Eccentricity
0.00315
Inclination
99.0013°
RAAN
249.4732°
Arg. of periapsis
187.6363°
True anomaly
172.48303°
Mean anomaly
172.4357°
Eccentric anomaly
172.45938°
Mean motion
3.64009 °/min
Orbital period
98.9 mins
BSTAR
0.002714
Loading maneuver chart data...
Computing Atmospheric mass density...
Loading historical data...
Loading historical data...
Loading historical data...
Loading historical data...
Loading historical data...
Loading historical data...
Loading historical data...

Documentation

Showing up to 5 results
|